Find Starlink 30889

NORAD ID: 58368 Int'l Des: 2023-177 Owner: SPXS Country: US Constellation: starlink operational
LEOCIRCULAR

Live Position

Loading 3D Globe...

About Starlink 30889

Description loading...

Upcoming Passes

Passes for default location (London). Set your location on the main map for personalized predictions.

Altitude History

Loading altitude history...

Two-Line Element Set

1 58368U 23177T 26120.85708935 .00001715 00000-0 71815-4 0 9996
2 58368 43.0041 56.1662 0000792 277.5861 82.4901 15.27579689136209
Epoch: Apr 30, 2026 • Age: 8 hours

Current Status

Altitude 494.3 km
Velocity 7.62 km/s
Sub-Earth Point -39.43°S, 72.25°E
Launch Date Nov 18, 2023
Age 2.4 years
Type internet

Technical Details

Classification Payload
Mass 730.00 kg
Dry Mass 700.00 kg
Total Mass 730.00 kg
Length 0.30 m
Diameter 4.10 m
Span 29.00 m
Shape Box + pan
Manufacturer SPXS
Bus Type Starlink V2M
Phase Status In Orbit
Owner/State SPXS/US

Most Searched